Location: Black Forest
(43.4794°N, 75.0081°W)
Time: 08:54:37
(UTC-04:00)

ISS - Visible Passes

Search period start: 24 July 2016 00:00
Search period end: 03 August 2016 00:00
Orbit: 401 x 404 km, 51.6° (Epoch: 24 July)

Date Brightness Start Highest point End Pass type
(mag) Time Alt. Az. Time Alt. Az. Time Alt. Az.
24 Jul -0.7 01:48:33 18° NNW 01:49:32 20° N 01:52:02 10° NE visible
24 Jul -0.8 03:24:02 10° NW 03:26:44 23° NNE 03:29:27 10° ENE visible
24 Jul -3.3 05:00:15 10° WNW 05:03:32 85° NE 05:06:47 10° ESE visible
25 Jul -0.7 00:57:09 21° N 00:57:09 21° N 00:59:05 10° NE visible
25 Jul -0.6 02:31:04 10° NW 02:33:35 20° N 02:36:06 10° ENE visible
25 Jul -2.4 04:07:23 10° NW 04:10:34 49° NNE 04:13:44 10° ESE visible
25 Jul -2.9 22:23:31 10° SW 22:25:58 42° S 22:25:58 42° S visible
26 Jul -0.6 00:05:24 15° NE 00:05:24 15° NE 00:06:12 10° NE visible
26 Jul -0.5 01:38:00 10° NW 01:40:25 19° N 01:42:51 10° NE visible
26 Jul -1.5 03:14:32 10° NW 03:17:32 33° NNE 03:20:32 10° E visible
26 Jul -3.0 04:50:55 10° WNW 04:54:02 43° SW 04:57:08 10° SSE visible
26 Jul -2.5 21:31:02 10° SSW 21:33:53 28° SE 21:36:44 10° ENE visible
26 Jul -2.1 23:07:06 10° W 23:10:13 42° NNW 23:13:21 10° NE visible
27 Jul -0.6 00:44:46 10° NW 00:47:14 20° N 00:49:43 10° NE visible
27 Jul -1.0 02:21:40 10° NW 02:24:26 25° NNE 02:27:13 10° ENE visible
27 Jul -3.5 03:57:54 10° WNW 04:01:10 82° SSW 04:04:25 10° SE visible
27 Jul -3.1 22:13:59 10° WSW 22:17:13 70° NNW 22:20:29 10° NE visible
27 Jul -0.8 23:51:27 10° WNW 23:54:04 22° NNW 23:56:43 10° NE visible
28 Jul -0.5 01:28:44 10° NW 01:35:00 - ENE 01:30:09 18° NNW visible
28 Jul -2.8 03:08:10 57° NNE 03:08:13 57° NNE 03:11:26 10° ESE visible
28 Jul -2.0 04:41:57 10° W 04:44:24 20° SW 04:46:50 10° S visible
28 Jul -3.4 21:21:05 10° SW 21:24:18 64° SE 21:27:32 10° ENE visible
28 Jul -1.2 22:58:05 10° WNW 23:00:57 27° NNW 23:03:49 10° NE visible
29 Jul -0.6 00:35:40 10° NW 00:38:07 19° N 00:38:13 19° N visible
29 Jul -1.8 22:04:47 10° W 22:07:52 38° NNW 22:10:57 10° NE visible
29 Jul -0.6 23:42:29 10° NW 23:44:56 19° N 23:46:46 13° NE visible
30 Jul -0.1 01:19:16 10° NW 01:19:21 10° NW 01:19:21 10° NW visible
30 Jul -2.7 21:11:37 10° WSW 21:14:51 60° NNW 21:18:05 10° NE visible
30 Jul -0.7 22:49:10 10° WNW 22:51:45 21° N 22:54:20 10° NE visible
31 Jul -0.5 00:26:21 10° NW 00:28:00 19° NNW 00:28:00 19° NNW visible
31 Jul -1.0 21:55:48 10° WNW 21:58:36 25° NNW 22:01:24 10° NE visible
31 Jul -0.8 23:33:20 10° NW 23:35:47 19° N 23:36:41 17° NNE visible
01 Aug -1.6 21:02:28 10° W 21:05:30 34° NNW 21:08:31 10° NE visible
01 Aug -0.6 22:40:10 10° NW 22:42:35 19° N 22:45:01 10° NE visible
02 Aug -0.5 00:16:50 10° NW 00:17:58 18° NNW 00:17:58 18° NNW visible
02 Aug -0.7 21:46:51 10° WNW 21:49:24 20° N 21:51:56 10° NE visible
02 Aug -1.1 23:23:56 10° NW 23:26:36 23° NNE 23:26:42 23° NNE visible
